Lancaster, SC

10:35 PM EST on December 05, 2016 (GMT -0500)
Lancaster County-McWhirter

Weather History for KLKR - September, 2012

Change the Weather History Date:

Thursday, September 27, 2012

  Actual Average (KUZA) Record (KUZA)
Temperature  
Mean Temperature 68 °F -  
Max Temperature 82 °F 79 °F 93 °F (1954)
Min Temperature 53 °F 59 °F 46 °F (2000)
Cooling Degree Days 2    
Growing Degree Days 18 (Base 50)    
Moisture  
Dew Point 63 °F    
Average Humidity 90    
Maximum Humidity 100    
Minimum Humidity 51    
Precipitation  
Precipitation 0.00 in - - ()
Sea Level Pressure  
Sea Level Pressure 30.17 in    
Wind  
Wind Speed 1 mph (SW)    
Max Wind Speed 6 mph    
Max Gust Speed -    
Visibility 6 miles    
Events Fog    
Averages and records for this station are not official NWS values.
T = Trace of Precipitation, MM = Missing Value Source: NWS Daily Summary

Daily Weather History Graph

Daily Weather History Graph

Search for Another Location

Airport or City:

Trip Planner

Search our weather history database for the weather conditions in past years. The results will help you decide how hot, cold, wet, or windy it might be!

Date:

Astronomy

Sep. 27, 2012 Rise Set
Actual Time 7:15 AM EDT 7:12 PM EDT
Civil Twilight 6:50 AM EDT 7:37 PM EDT
Nautical Twilight 6:21 AM EDT 8:06 PM EDT
Astronomical Twilight 5:51 AM EDT 8:36 PM EDT
Moon 5:40 PM EDT (9/27) 4:47 AM EDT (9/27)
Length of Visible Light 12h 47m
Length of Day
11h 56m
Waxing Gibbous, 94% of the Moon is Illuminated
Sep 27
Waxing Gibbous
Sep 29
Full
Oct 8
Last Quarter
Oct 15
New
Oct 21
First Quarter

Hourly Weather History & Observations

Time (EDT) Temp. Heat Index Dew Point Humidity Pressure Visibility Wind Dir Wind Speed Gust Speed Precip Events Conditions
12:15 AM 57.2 °F - 57.2 °F 100% 30.21 in 5.0 mi Calm Calm - N/A   Clear
12:35 AM 57.2 °F - 57.2 °F 100% 30.21 in 5.0 mi Calm Calm - N/A   Clear
12:55 AM 57.2 °F - 57.2 °F 100% 30.21 in 5.0 mi Calm Calm - N/A   Clear
1:15 AM 55.4 °F - 55.4 °F 100% 30.21 in 5.0 mi Calm Calm - N/A   Clear
1:35 AM 55.4 °F - 55.4 °F 100% 30.21 in 5.0 mi Calm Calm - N/A   Clear
1:55 AM 55.4 °F - 55.4 °F 100% 30.21 in 4.0 mi Calm Calm - N/A   Clear
2:15 AM 55.4 °F - 55.4 °F 100% 30.21 in 5.0 mi Calm Calm - N/A   Clear
2:35 AM 55.4 °F - 55.4 °F 100% 30.21 in 4.0 mi Calm Calm - N/A   Clear
2:55 AM 55.4 °F - 55.4 °F 100% 30.20 in 4.0 mi Calm Calm - N/A   Clear
3:15 AM 55.4 °F - 55.4 °F 100% 30.19 in 4.0 mi Calm Calm - N/A   Clear
3:55 AM 55.4 °F - 55.4 °F 100% 30.18 in 4.0 mi Calm Calm - N/A   Clear
4:15 AM 55.4 °F - 55.4 °F 100% 30.18 in 4.0 mi Calm Calm - N/A   Clear
4:35 AM 55.4 °F - 55.4 °F 100% 30.17 in 4.0 mi Calm Calm - N/A   Clear
5:15 AM 53.6 °F - 53.6 °F 100% 30.17 in 5.0 mi Calm Calm - N/A   Clear
5:35 AM 53.6 °F - 53.6 °F 100% 30.18 in 5.0 mi Calm Calm - N/A   Clear
5:55 AM 53.6 °F - 53.6 °F 100% 30.18 in 5.0 mi Calm Calm - N/A   Clear
6:15 AM 53.6 °F - 53.6 °F 100% 30.18 in 4.0 mi Calm Calm - N/A   Clear
6:35 AM 53.6 °F - 53.6 °F 100% 30.19 in 5.0 mi Calm Calm - N/A   Mostly Cloudy
6:55 AM 55.4 °F - 55.4 °F 100% 30.20 in 5.0 mi Calm Calm - N/A   Overcast
7:15 AM 57.2 °F - 57.2 °F 100% 30.21 in 4.0 mi Calm Calm - N/A   Overcast
7:35 AM 57.2 °F - 57.2 °F 100% 30.21 in 0.2 mi Calm Calm - N/A Fog Fog
7:55 AM 57.2 °F - 57.2 °F 100% 30.22 in 0.2 mi Calm Calm - N/A Fog Fog
8:15 AM 59.0 °F - 59.0 °F 100% 30.22 in 0.2 mi Calm Calm - N/A Fog Fog
8:35 AM 60.8 °F - 60.8 °F 100% 30.22 in 0.2 mi Calm Calm - N/A Fog Fog
8:55 AM 62.6 °F - 62.6 °F 100% 30.23 in 0.2 mi Calm Calm - N/A Fog Fog
9:15 AM 64.4 °F - 64.4 °F 100% 30.22 in 0.2 mi Calm Calm - N/A Fog Fog
9:35 AM 64.4 °F - 64.4 °F 100% 30.22 in 0.2 mi WSW 3.5 mph - N/A Fog Fog
9:55 AM 64.4 °F - 64.4 °F 100% 30.23 in 0.2 mi WSW 5.8 mph - N/A Fog Fog
10:15 AM 66.2 °F - 66.2 °F 100% 30.24 in 0.5 mi WSW 4.6 mph - N/A Fog Fog
10:35 AM 66.2 °F - 66.2 °F 100% 30.24 in 0.8 mi Calm Calm - N/A   Overcast
10:55 AM 66.2 °F - 66.2 °F 100% 30.24 in 0.8 mi Calm Calm - N/A   Overcast
11:15 AM 68.0 °F - 68.0 °F 100% 30.24 in 3.0 mi WSW 4.6 mph - N/A   Overcast
11:35 AM 69.8 °F - 69.8 °F 100% 30.23 in 9.0 mi Calm Calm - N/A   Overcast
11:55 AM 73.4 °F - 71.6 °F 94% 30.23 in 10.0 mi WSW 3.5 mph - N/A   Mostly Cloudy
12:15 PM 75.2 °F - 71.6 °F 89% 30.22 in 10.0 mi South 3.5 mph - N/A   Mostly Cloudy
12:35 PM 77.0 °F - 71.6 °F 83% 30.21 in 10.0 mi SSW 3.5 mph - N/A   Partly Cloudy
12:55 PM 77.0 °F - 69.8 °F 78% 30.21 in 10.0 mi SW 5.8 mph - N/A   Clear
1:15 PM 78.8 °F - 68.0 °F 69% 30.20 in 10.0 mi Calm Calm - N/A   Clear
1:35 PM 80.6 °F 83.2 °F 68.0 °F 65% 30.18 in 10.0 mi SSE 3.5 mph - N/A   Clear
1:55 PM 80.6 °F 82.7 °F 66.2 °F 61% 30.17 in 10.0 mi South 4.6 mph - N/A   Clear
2:15 PM 80.6 °F 82.7 °F 66.2 °F 61% 30.16 in 10.0 mi South 4.6 mph - N/A   Scattered Clouds
2:35 PM 82.4 °F 84.6 °F 66.2 °F 58% 30.15 in 10.0 mi West 3.5 mph - N/A   Partly Cloudy
2:55 PM 80.6 °F 82.7 °F 66.2 °F 61% 30.14 in 10.0 mi Calm Calm - N/A   Clear
3:15 PM 82.4 °F 83.9 °F 64.4 °F 54% 30.13 in 10.0 mi WSW 5.8 mph - N/A   Partly Cloudy
3:35 PM 82.4 °F 83.4 °F 62.6 °F 51% 30.12 in 10.0 mi SW 3.5 mph - N/A   Partly Cloudy
3:55 PM 82.4 °F 84.6 °F 66.2 °F 58% 30.12 in 10.0 mi Calm Calm - N/A   Clear
4:15 PM 82.4 °F 83.4 °F 62.6 °F 51% 30.12 in 10.0 mi Calm Calm - N/A   Clear
4:55 PM 82.4 °F 83.4 °F 62.6 °F 51% 30.11 in 10.0 mi WSW 3.5 mph - N/A   Clear
5:15 PM 82.4 °F 83.4 °F 62.6 °F 51% 30.11 in 10.0 mi West 3.5 mph - N/A   Clear
5:35 PM 80.6 °F 82.7 °F 66.2 °F 61% 30.11 in 10.0 mi Calm Calm - N/A   Clear
5:55 PM 77.0 °F - 68.0 °F 74% 30.11 in 10.0 mi Calm Calm - N/A   Clear
6:15 PM 77.0 °F - 69.8 °F 78% 30.11 in 10.0 mi Calm Calm - N/A   Clear
6:35 PM 75.2 °F - 73.4 °F 94% 30.11 in 10.0 mi Calm Calm - N/A   Clear
6:55 PM 73.4 °F - 73.4 °F 100% 30.11 in 10.0 mi Calm Calm - N/A   Clear
7:15 PM 71.6 °F - 71.6 °F 100% 30.11 in 10.0 mi Calm Calm - N/A   Clear
7:35 PM 68.0 °F - 68.0 °F 100% 30.12 in 10.0 mi Calm Calm - N/A   Clear
7:55 PM 68.0 °F - 68.0 °F 100% 30.12 in 10.0 mi Calm Calm - N/A   Clear
8:15 PM 66.2 °F - 66.2 °F 100% 30.12 in 8.0 mi Calm Calm - N/A   Clear
8:55 PM 64.4 °F - 64.4 °F 100% 30.13 in 8.0 mi Calm Calm - N/A   Clear
9:15 PM 64.4 °F - 64.4 °F 100% 30.12 in 7.0 mi Calm Calm - N/A   Clear
9:35 PM 64.4 °F - 64.4 °F 100% 30.13 in 8.0 mi Calm Calm - N/A   Clear
9:55 PM 64.4 °F - 64.4 °F 100% 30.13 in 8.0 mi Calm Calm - N/A   Clear
10:15 PM 64.4 °F - 64.4 °F 100% 30.13 in 7.0 mi Calm Calm - N/A   Clear
10:35 PM 64.4 °F - 64.4 °F 100% 30.13 in 6.0 mi Calm Calm - N/A   Clear
10:55 PM 62.6 °F - 62.6 °F 100% 30.13 in 7.0 mi Calm Calm - N/A   Clear
11:15 PM 62.6 °F - 62.6 °F 100% 30.13 in 7.0 mi Calm Calm - N/A   Clear
11:35 PM 62.6 °F - 62.6 °F 100% 30.13 in 5.0 mi Calm Calm - N/A   Clear
11:55 PM 62.6 °F - 62.6 °F 100% 30.13 in 5.0 mi Calm Calm - N/A   Clear